Orbital Elements at Epoch 2459200.5 (2020-Dec-17.0) TDB
Reference: JPL 26 (heliocentric ecliptic J2000)
Element | Value | Uncertainty (1-sigma) | Units |
e | .08937611820903153 | 4.4374e-08 | |
a | 2.855150785968929 | 1.3231e-08 | au |
q | 2.599968491817561 | 1.2683e-07 | au |
i | 3.089567136250642 | 3.3719e-06 | deg |
node | 108.4259138224585 | 8.3714e-05 | deg |
peri | 273.3975699187109 | 8.5878e-05 | deg |
M | 234.9182846761808 | 2.0204e-05 | deg |
tp | 2459812.756392344432 (2022-Aug-21.25639234) | 0.00010032 | TDB |
period | 1762.146455006463 4.82 | 1.2249e-05 3.354e-08 | d yr |
n | .2042962995369642 | 1.4201e-09 | deg/d |
Q | 3.110333080120298 | 1.4414e-08 | au |
|
| | Orbit Determination Parameters
Additional Information
|